Content
SEND FEEDBACK

Daily
Averages
Monthly
Summary
France

LE HAVRE, FRANCE


Home > Europe > France
Elevation: 338 feet     Latitude: 49 31N     Longitude: 000 04E

WEATHER
 
SELECT A DAY
Number of Records: 182,166;   Date Range: 3/4/97 - 9/30/14
 
SHARE

PRINT THIS DATA

[ ← Previous Day ]
WEATHER ALMANAC - MARCH 12, 2013
[ Next Day → ]
[ °C ]   °F
Weather ElementAverageHighLow
Temperature29.8 °F32 °F (8:00 pm)28.4 °F (10:00 am)
Dewpoint22.9 °F24.8 °F (10:00 am)19.4 °F (9:30 pm)
Humidity76.1 %86 % (10:00 am)60 % (9:30 pm)
Barometer29.67 in29.74 in (9:00 pm)29.56 in (10:00 am)
Wind Speed20.6 mph26.5 mph (5:00 pm)
Wind Gust38 mph (1:30 pm)
Weather ElementAverage
Visibility3.7 mi
Wind DirectionNE (41.8 °)

Weather ElementTotal
Precipitation---
Heating Degree Days34.8 (Base 65)
Averaged from 28 records on March 12, 2013
WEATHER CONDITIONS BREAKOUT
WIND DIRECTION BREAKOUT
WEATHER BY HOUR - MARCH 12, 2013
[ °C ]   °F
Local TimeTemperatureDewpointHumidityBarometerVisibilityWind DirectionWind SpeedGust SpeedPrecipitationEventsConditions
10:00 AM28.4 °F24.8 °F86 %29.56 inNE (40°)24.2 mphSnowLight Snow
10:30 AM28.4 °F24.8 °F86 %29.59 inNE (40°)24.2 mphSnowLight Snow
11:00 AM28.4 °F24.8 °F86 %29.59 inNE (50°)24.2 mphSnowLight Snow
11:30 AM28.4 °F24.8 °F86 %29.59 inNE (40°)24.2 mphSnowLight Snow
12:00 PM28.4 °F24.8 °F86 %29.59 inNE (40°)21.9 mphSnowLight Snow
12:30 PM28.4 °F24.8 °F86 %29.62 in1.2 miNE (40°)23.0 mphSnowSnow
1:00 PM28.4 °F24.8 °F86 %29.62 inNE (50°)17.3 mphSnowLight Snow
1:30 PM28.4 °F24.8 °F86 %29.62 in1.1 miNE (40°)25.3 mph38.0 mphSnowLight Snow
2:00 PM28.4 °F24.8 °F86 %29.62 in1.1 miNE (40°)23.0 mph35.7 mphSnowLight Snow
2:30 PM30.2 °F23.0 °F75 %29.65 inNE (40°)23.0 mphSnowLight Snow
3:00 PM30.2 °F24.8 °F80 %29.65 inNE (40°)23.0 mphRain-SnowLight Snow
3:30 PM30.2 °F23.0 °F75 %29.65 inNE (40°)24.2 mphSnowLight Snow
4:00 PM30.2 °F23.0 °F75 %29.65 inNE (40°)24.2 mphOvercast
4:30 PM30.2 °F23.0 °F75 %29.65 inNNE (30°)25.3 mphOvercast
5:00 PM30.2 °F23.0 °F75 %29.65 inNE (40°)26.5 mphMostly Cloudy
5:30 PM30.2 °F23.0 °F75 %29.68 inNNE (30°)25.3 mphMostly Cloudy
6:00 PM30.2 °F21.2 °F69 %29.68 inNE (40°)24.2 mphScattered Clouds
6:30 PM30.2 °F23.0 °F75 %29.68 inNNE (30°)26.5 mphMostly Cloudy
7:00 PM30.2 °F21.2 °F69 %29.71 inNE (40°)20.7 mphOvercast
7:30 PM30.2 °F21.2 °F69 %29.71 inNE (40°)20.7 mphOvercast
8:00 PM32.0 °F21.2 °F64 %29.71 inNE (40°)18.4 mphMostly Cloudy
8:30 PM30.2 °F21.2 °F69 %29.71 inNE (40°)16.1 mphMostly Cloudy
9:00 PM30.2 °F21.2 °F69 %29.74 inNE (50°)13.8 mphMostly Cloudy
9:30 PM32.0 °F19.4 °F60 %29.74 inNE (50°)13.8 mphMostly Cloudy
10:00 PM30.2 °F21.2 °F69 %29.74 inNE (50°)10.4 mphPartly Cloudy
10:30 PM30.2 °F21.2 °F69 %29.74 in6.2 miNE (50°)10.4 mphScattered Clouds
11:00 PM30.2 °F21.2 °F69 %29.74 in6.2 miNE (50°)11.5 mphPartly Cloudy
11:30 PM30.2 °F23.0 °F75 %29.74 in6.2 miNE (50°)10.4 mphScattered Clouds
Hourly data recorded from LFOH, located miles away from Le Havre, France







STORIES FROM OUR PARTNERS